Location: Unspecified
(33.6682°S, 0.0000°E)
Time: 14:18:50
(UTC+00:00)

Vanguard 1 Rocket - Visible Passes

Search period start: 26 June 2019 00:00
Search period end: 06 July 2019 00:00
Orbit: 652 x 4224 km, 34.3° (Epoch: 25 June)

Date Brightness Start Highest point End Pass type
(mag) Time Alt. Az. Time Alt. Az. Time Alt. Az.
26 Jun 10.2 02:36:24 18° E 02:36:24 18° E 02:39:38 10° E visible
26 Jun 8.6 04:53:42 39° WNW 04:57:24 79° NNE 05:12:35 10° E visible
27 Jun 8.6 03:46:42 55° NE 03:46:42 55° NE 03:57:23 10° ESE visible
27 Jun 9.2 06:04:00 12° W 06:12:38 87° S 06:31:17 10° E visible
28 Jun 10.1 02:39:40 19° E 02:39:40 19° E 02:42:51 10° E visible
28 Jun 8.5 04:56:58 43° WNW 05:00:18 86° NNE 05:15:13 10° E visible
29 Jun 8.5 03:49:54 61° ENE 03:49:54 61° ENE 04:00:06 10° ESE visible
29 Jun 9.1 06:07:11 13° W 06:15:35 87° S 06:33:55 10° E visible
30 Jun 10.1 02:42:48 20° E 02:42:48 20° E 02:45:52 10° E visible
30 Jun 8.4 05:00:06 44° W 05:03:16 89° S 05:17:53 10° E visible
01 Jul 8.4 03:53:00 64° E 03:53:00 64° E 04:02:49 10° E visible
01 Jul 9.1 06:10:17 12° W 06:18:33 89° SSE 06:36:31 10° E visible
02 Jul 10.1 02:45:52 20° E 02:45:52 20° E 02:48:46 10° E visible
02 Jul 8.3 05:03:09 44° W 05:06:17 86° S 05:20:35 10° E visible
03 Jul 8.3 03:56:01 64° E 03:56:01 64° E 04:05:34 10° E visible
03 Jul 9.1 06:13:19 12° W 06:21:28 86° NNW 06:39:02 10° ENE visible
04 Jul 10.0 02:48:52 20° E 02:48:52 20° E 02:51:38 10° E visible
04 Jul 8.3 05:06:09 43° W 05:09:18 87° S 05:23:17 10° E visible
05 Jul 8.3 03:59:00 64° E 03:59:00 64° E 04:08:21 10° E visible
05 Jul 9.1 06:16:16 11° W 06:24:23 79° NNW 06:41:27 10° ENE visible
